PROFILE

 METAR AND TAF INFORMATION
ADDS - METARS form results

(1503 UTC 22 January 2019)
http://aviationweather.gov/metar/data/
 
TFFF 221500Z AUTO 12017KT 9999 SCT032 SCT041 28/20 Q1019 TEMPO 10015G28KT
TFFF 221430Z AUTO 12016KT 9999 BKN032 BKN047 29/20 Q1019 TEMPO 10015G28KT
TAF TFFF 221000Z 2212/2312 08014KT 9999 SCT020 PROB30 TEMPO 2214/2224 10015G28KT PROB30 TEMPO 2218/2312 4000 SHRA SCT018TCU 

 AIRPORT MAP

 RUNWAY INFORMATION
Runway 10 Runway length 10826 ft Runway width 147 ft
Runway elevation 10 ft Runway displaced threshold 0 ft Runway heading 80
Runway 28 Runway length 10826 ft Runway width 147 ft
Runway elevation 14 ft Runway displaced threshold 984 ft Runway heading 260

 AIRPORT FREQUENCIES
Type APP Name FORT DE FR Frequency 121 MHZ
Type ATIS Name ATIS Frequency 127.85 MHZ
Type GND Name GND Frequency 121.9 MHZ
Type TWR Name FORT DE FR Frequency 118.5 MHZ

 AIRPORT NEAR NAVIGATION AIDS
Type VOR-DME Name Fort De France Frequency 113300 KHZ
Type NDB Name Fort De France Frequency 329 KHZ